Location: Brantley
(31.5822°N, 86.2569°W)
Time: 16:06:53
(UTC+00:00)

Injun/Solrad 3 - Pass Details

Date: 21 February 2026
Orbit: 871 x 985 km, 66.8° (Epoch: 11 March)

Event Time Altitude Azimuth Distance (km) Brightness Sun altitude
Rises 01:36:44 0° 336° (NNW) 3,598 11.3 -26.3°
Reaches altitude 10° 01:39:15 10° 337° (NNW) 2,668 10.6 -26.9°
Maximum altitude 01:45:31 79° 65° (ENE) 983 7.8 -28.2°
Enters shadow 01:45:37 79° 79° (E) 984 7.8 -28.2°
Drops below altitude 10° 01:51:53 10° 152° (SSE) 2,717 - -29.6°
Sets 01:54:28 0° 153° (SSE) 3,668 - -30.1°
